This demonstration page uses our WeatherBlox Daily Observations layout. Learn more.

Left ArrowRight Arrow

36.19886, -115.1175

Hourly Observations for March 23, 2017

Temp ( °F °C ) Dew Point ( °F °C ) Humidity (%) Winds ( mph kmh ) Pressure ( in mb ) Visibility ( mi km ) Precip ( " mm )
12:43 am 00:43 Clear 58 14.4 25 -3.9 28 28 NNW 18 30 29.71 1006 10 16 N/A
12:53 am 00:53 Clear 58 14.4 24 -4.4 27 27 NNW 14 22 29.76 1008 10 16 N/A
1:53 am 01:53 Clear 57 13.9 24 -4.4 28 28 NNW 24 39 29.77 1008 10 16 N/A
2:53 am 02:53 Partly Cloudy 56 13.3 27 -2.8 33 33 NNW 20 31 29.77 1008 10 16 N/A
3:53 am 03:53 Cloudy 56 13.3 31 -0.6 39 39 NW 22 35 29.78 1008 10 16 N/A
4:53 am 04:53 Mostly Cloudy 55 12.8 32 undefined 42 42 NW 15 24 29.79 1009 10 16 N/A
5:53 am 05:53 Clear 54 12.2 31 -0.6 42 42 N 16 26 29.82 1010 10 16 N/A
6:53 am 06:53 Mostly Sunny 53 11.7 32 undefined 45 45 NNW 16 26 29.84 1011 10 16 N/A
7:53 am 07:53 Mostly Sunny 54 12.2 35 1.7 49 49 NNW 18 30 29.87 1012 10 16 N/A
8:53 am 08:53 Partly Cloudy 57 13.9 34 1.1 42 42 NNW 23 37 29.89 1012 10 16 N/A
9:53 am 09:53 Sunny 59 15 35 1.7 41 41 NNW 22 35 29.92 1013 10 16 N/A
10:53 am 10:53 Mostly Sunny 61 16.1 35 1.7 38 38 NNW 26 43 29.94 1014 10 16 N/A
11:53 am 11:53 Cloudy 61 16.1 34 1.1 36 36 N 20 31 29.97 1015 10 16 N/A
12:53 pm 12:53 Mostly Cloudy 64 17.8 32 undefined 30 30 N 20 31 29.96 1015 10 16 N/A
1:10 pm 13:10 Partly Cloudy with Nearby Thunderstorms 66 19 30 -1 26 26 NNW 24 39 29.88 1012 10 16 N/A
1:35 pm 13:35 Mostly Sunny 68 20 30 -1.1 24 24 N 21 33 29.88 1012 10 16 N/A
1:53 pm 13:53 Partly Cloudy 69 20.6 28 -2.2 22 22 NNW 20 31 29.96 1015 10 16 N/A
2:53 pm 14:53 Mostly Sunny 68 20 29 -1.7 23 23 N 14 22 29.96 1015 10 16 N/A
3:53 pm 15:53 Sunny 71 21.7 26 -3.3 19 19 NNW 24 39 29.94 1014 10 16 N/A
4:53 pm 16:53 Sunny 71 21.7 24 -4.4 17 17 NW 18 30 29.94 1014 10 16 N/A
5:53 pm 17:53 Sunny 71 21.7 23 -5 16 16 N 12 19 29.95 1014 10 16 N/A
6:53 pm 18:53 Sunny 69 20.6 23 -5 17 17 NNW 7 11 29.97 1015 10 16 N/A
7:53 pm 19:53 Clear 67 19.4 22 -5.6 18 18 WNW 6 9 29.99 1016 10 16 N/A
8:53 pm 20:53 Clear 63 17.2 31 -0.6 30 30 E 12 19 30.04 1017 10 16 N/A
9:53 pm 21:53 Clear 60 15.6 35 1.7 39 39 ESE 7 11 30.07 1018 10 16 N/A
10:53 pm 22:53 Clear 58 14.4 35 1.7 42 42 SSE 3 6 30.11 1020 10 16 N/A
11:53 pm 23:53 Clear 57 13.9 37 2.8 47 47 N N/A 30.13 1020 10 16 N/A

Powered by AerisWeather